• In Uzbekistan
  • List of Countries
  • For 7 days
  • Water Temperature
  • Satellite Maps
  • Weather Map
  • Weather Widgets
  • user-avatar
    Login

    Hourly Weather Kaprun

    Today, 17 October, Tuesday

    Time Temperature Precipitation Wind Pressure Humidity
    00:00 +5°C° 0 mm 1 mps 603 mmHg 70%
    01:00 +5°C° 0 mm 1 mps 603 mmHg 69%
    02:00 +5°C° 0 mm 1 mps 603 mmHg 68%
    03:00 +5°C° 0 mm 1 mps 603 mmHg 66%
    04:00 +5°C° 0 mm 1 mps 603 mmHg 65%
    05:00 +4°C° 0 mm 1 mps 603 mmHg 64%
    06:00 +4°C° 0 mm 1 mps 603 mmHg 63%
    07:00 +4°C° 0 mm 1 mps 603 mmHg 62%
    08:00 +8°C° 0 mm 1 mps 604 mmHg 54%
    09:00 +11°C° 0 mm 1 mps 605 mmHg 47%
    10:00 +14°C° 0 mm 1 mps 606 mmHg 39%
    11:00 +15°C° 0 mm 1 mps 606 mmHg 38%
    12:00 +15°C° 0 mm 1 mps 606 mmHg 36%
    13:00 +16°C° 0 mm 2 mps 606 mmHg 34%
    14:00 +15°C° 0 mm 2 mps 606 mmHg 42%
    15:00 +14°C° 0 mm 2 mps 605 mmHg 49%
    16:00 +13°C° 0 mm 2 mps 604 mmHg 56%
    17:00 +9°C° 0 mm 2 mps 603 mmHg 62%
    18:00 +8°C° 0 mm 1 mps 602 mmHg 68%
    19:00 +6°C° 0 mm 1 mps 601 mmHg 73%
    20:00 +4°C° 0 mm 2 mps 600 mmHg 72%
    21:00 +4°C° 0 mm 2 mps 600 mmHg 71%
    22:00 +3°C° 0 mm 2 mps 600 mmHg 70%
    23:00 +3°C° 0 mm 2 mps 600 mmHg 69%

    Tomorrow, 18 October, Wednesday

    Time Temperature Precipitation Wind Pressure Humidity
    00:00 +3°C° 0 mm 2 mps 599 mmHg 69%
    01:00 +4°C° 0 mm 1 mps 599 mmHg 68%
    02:00 +4°C° 0 mm 1 mps 599 mmHg 67%
    03:00 +3°C° 0 mm 1 mps 598 mmHg 67%
    04:00 +3°C° 0 mm 1 mps 598 mmHg 67%
    05:00 +3°C° 0 mm 1 mps 598 mmHg 67%
    06:00 +3°C° 0 mm 1 mps 598 mmHg 66%
    07:00 +3°C° 0 mm 1 mps 598 mmHg 66%
    08:00 +6°C° 0 mm 1 mps 599 mmHg 58%
    09:00 +8°C° 0 mm 1 mps 600 mmHg 49%
    10:00 +11°C° 0 mm 1 mps 601 mmHg 41%
    11:00 +12°C° 0 mm 1 mps 601 mmHg 39%
    12:00 +12°C° 0 mm 1 mps 601 mmHg 38%
    13:00 +13°C° 0 mm 2 mps 601 mmHg 37%
    14:00 +12°C° 0 mm 2 mps 600 mmHg 44%
    15:00 +11°C° 0 mm 1 mps 600 mmHg 51%
    16:00 +11°C° 0 mm 1 mps 599 mmHg 57%
    17:00 +8°C° 0 mm 1 mps 598 mmHg 65%
    18:00 +6°C° 0 mm 1 mps 597 mmHg 73%
    19:00 +4°C° 0 mm 1 mps 597 mmHg 81%
    20:00 +3°C° 0 mm 1 mps 597 mmHg 78%
    21:00 +3°C° 0 mm 1 mps 597 mmHg 76%
    22:00 +3°C° 0 mm 1 mps 597 mmHg 74%
    23:00 +2°C° 0 mm 1 mps 596 mmHg 72%

    Day after tomorrow, 19 October, Thursday

    Time Temperature Precipitation Wind Pressure Humidity
    00:00 +2°C° 0 mm 1 mps 596 mmHg 70%
    01:00 +2°C° 0 mm 1 mps 596 mmHg 69%
    02:00 +2°C° 0 mm 1 mps 596 mmHg 68%
    03:00 +2°C° 0 mm 1 mps 596 mmHg 67%
    04:00 +2°C° 0 mm 1 mps 596 mmHg 66%
    05:00 +2°C° 0 mm 1 mps 596 mmHg 64%
    06:00 +2°C° 0 mm 1 mps 596 mmHg 63%
    07:00 +1°C° 0 mm 1 mps 596 mmHg 61%
    08:00 +4°C° 0 mm 1 mps 597 mmHg 53%
    09:00 +7°C° 0 mm 1 mps 598 mmHg 46%
    10:00 +10°C° 0 mm 1 mps 599 mmHg 38%
    11:00 +11°C° 0 mm 1 mps 600 mmHg 37%
    12:00 +12°C° 0 mm 1 mps 600 mmHg 36%
    13:00 +12°C° 0 mm 1 mps 600 mmHg 35%
    14:00 +12°C° 0 mm 1 mps 599 mmHg 42%
    15:00 +11°C° 0 mm 1 mps 599 mmHg 49%
    16:00 +10°C° 0 mm 1 mps 598 mmHg 56%
    17:00 +8°C° 0 mm 1 mps 598 mmHg 63%
    18:00 +5°C° 0 mm 1 mps 597 mmHg 69%
    19:00 +3°C° 0 mm 1 mps 596 mmHg 76%
    20:00 +3°C° 0 mm 1 mps 596 mmHg 73%
    21:00 +3°C° 0 mm 1 mps 597 mmHg 71%
    22:00 +3°C° 0 mm 1 mps 597 mmHg 68%
    23:00 +3°C° 0 mm 1 mps 597 mmHg 66%

    20 October, Friday

    Time Temperature Precipitation Wind Pressure Humidity
    00:00 +3°C° 0 mm 1 mps 597 mmHg 65%
    01:00 +3°C° 0 mm 1 mps 597 mmHg 63%
    02:00 +2°C° 0 mm 1 mps 596 mmHg 63%
    03:00 +2°C° 0 mm 1 mps 596 mmHg 63%
    04:00 +2°C° 0 mm 1 mps 596 mmHg 63%
    05:00 +2°C° 0 mm 1 mps 596 mmHg 63%
    06:00 +2°C° 0 mm 1 mps 596 mmHg 62%
    07:00 +2°C° 0 mm 1 mps 596 mmHg 62%
    08:00 +5°C° 0 mm 1 mps 598 mmHg 55%
    09:00 +7°C° 0 mm 1 mps 599 mmHg 48%
    10:00 +10°C° 0 mm 1 mps 601 mmHg 42%
    11:00 +11°C° 0 mm 1 mps 601 mmHg 41%
    12:00 +12°C° 0 mm 1 mps 601 mmHg 40%
    13:00 +12°C° 0 mm 1 mps 601 mmHg 40%
    14:00 +11°C° 0 mm 1 mps 601 mmHg 47%
    15:00 +10°C° 0 mm 1 mps 600 mmHg 55%
    16:00 +9°C° 0 mm 0 mps 600 mmHg 62%
    17:00 +8°C° 0 mm 1 mps 599 mmHg 68%
    18:00 +5°C° 0 mm 1 mps 599 mmHg 74%
    19:00 +3°C° 0 mm 1 mps 598 mmHg 80%
    20:00 +3°C° 0 mm 1 mps 598 mmHg 78%
    21:00 +3°C° 0 mm 1 mps 598 mmHg 76%
    22:00 +3°C° 0 mm 1 mps 599 mmHg 75%
    23:00 +3°C° 0 mm 1 mps 599 mmHg 74%

    21 October, Saturday

    Time Temperature Precipitation Wind Pressure Humidity
    00:00 +3°C° 0 mm 1 mps 598 mmHg 73%
    01:00 +3°C° 0 mm 1 mps 598 mmHg 71%
    02:00 +3°C° 0 mm 1 mps 598 mmHg 71%
    03:00 +2°C° 0 mm 1 mps 598 mmHg 71%
    04:00 +2°C° 0 mm 1 mps 598 mmHg 71%
    05:00 +2°C° 0 mm 1 mps 598 mmHg 71%
    06:00 +2°C° 0 mm 1 mps 598 mmHg 71%
    07:00 +2°C° 0 mm 1 mps 598 mmHg 71%
    08:00 +5°C° 0 mm 1 mps 599 mmHg 63%
    09:00 +8°C° 0 mm 1 mps 601 mmHg 56%
    10:00 +11°C° 0 mm 1 mps 602 mmHg 48%
    11:00 +12°C° 0 mm 1 mps 602 mmHg 47%
    12:00 +12°C° 0 mm 1 mps 602 mmHg 45%
    13:00 +13°C° 0 mm 2 mps 601 mmHg 43%
    14:00 +12°C° 0 mm 2 mps 601 mmHg 50%
    15:00 +10°C° 0 mm 2 mps 600 mmHg 57%
    16:00 +9°C° 0 mm 2 mps 600 mmHg 64%
    17:00 +8°C° 0 mm 1 mps 599 mmHg 72%
    18:00 +6°C° 0 mm 1 mps 598 mmHg 80%
    19:00 +4°C° 0 mm 1 mps 597 mmHg 88%
    20:00 +4°C° 0 mm 1 mps 597 mmHg 89%
    21:00 +3°C° 0 mm 1 mps 597 mmHg 90%
    22:00 +3°C° 0 mm 1 mps 597 mmHg 92%
    23:00 +3°C° 0 mm 1 mps 597 mmHg 92%

    22 October, Sunday

    Time Temperature Precipitation Wind Pressure Humidity
    00:00 +3°C° 0 mm 1 mps 596 mmHg 92%
    01:00 +3°C° 0 mm 1 mps 596 mmHg 93%
    02:00 +3°C° 0 mm 1 mps 596 mmHg 93%
    03:00 +3°C° 0 mm 1 mps 596 mmHg 94%
    04:00 +3°C° 0 mm 1 mps 595 mmHg 94%
    05:00 +3°C° 0.6 mm 1 mps 596 mmHg 95%
    06:00 +3°C° 0.6 mm 1 mps 596 mmHg 96%
    07:00 +3°C° 0.6 mm 1 mps 596 mmHg 96%
    08:00 +3°C° 1.3 mm 1 mps 596 mmHg 96%
    09:00 +2°C° 1.3 mm 2 mps 596 mmHg 97%
    10:00 +2°C° 1.3 mm 2 mps 596 mmHg 97%
    11:00 +2°C° 2.7 mm 2 mps 595 mmHg 96%
    12:00 +1°C° 2.7 mm 2 mps 595 mmHg 96%
    13:00 +1°C° 2.7 mm 2 mps 595 mmHg 96%
    14:00 -1°C° 1.5 mm 2 mps 595 mmHg 96%
    15:00 -1°C° 1.5 mm 3 mps 595 mmHg 95%
    16:00 -2°C° 1.5 mm 3 mps 595 mmHg 94%
    17:00 -2°C° 0.9 mm 3 mps 595 mmHg 94%
    18:00 -2°C° 0.9 mm 3 mps 595 mmHg 94%
    19:00 -4°C° 0.9 mm 3 mps 595 mmHg 94%
    20:00 -4°C° 0.5 mm 3 mps 595 mmHg 94%
    21:00 -5°C° 0.5 mm 3 mps 595 mmHg 94%
    22:00 -5°C° 0.5 mm 3 mps 596 mmHg 94%
    23:00 -5°C° 0.1 mm 3 mps 596 mmHg 95%
    Show more